Back to catalog

ATLAS 5 CENTAUR DEB

AliveHEO
NORAD 44650·DEBRIS·🇺🇸 United States

Launched Oct 17, 2018 from Cape Canaveral Space Force Station

Loading…

Next Passes (next 24 hours)

TLE

FreshSource: Space-Track

Epoch: Sep 13, 2026, 08:55 UTC

1 44650U 18079L   26256.37206602 -.00000164  00000-0  00000-0 0  9993
2 44650  13.1828  23.1113 4444402 348.7054   3.8245  1.90420741 51835

Track ATLAS 5 CENTAUR DEB in real time with AllMySat

Download on the App Store